Find Intelsat IS-29e

NORAD ID: 41308 Int'l Des: 2016-004 Owner: INTELU Country: US operational
MEOCIRCULAR

現在のビュー

3D地球を読み込み中...

About Intelsat IS-29e

Intelsat IS-29e (NORAD 41308) is a satellite launched Jan 27, 2016 by INTELU of US. It operates in MEO, CIRCULAR orbit with a mass of 6552.00 kg.

次回通過

Passes for default location (London). Set your location on the main map for personalized predictions.

高度履歴

Loading altitude history...

軌道要素

1 41308U 16004A 26194.78142676 .00000130 00000-0 00000+0 0 9993
2 41308 6.5636 69.9884 0002492 92.3626 84.0562 1.00622927 38547
Epoch: Jul 13, 2026 • Age: 21 hours

現在のステータス

高度 35678.7 km
遠地点 / 近地点 N/A
速度 3.08 km/s
衛星直下点 5.29°N, 34.73°E
打ち上げ日 Jan 27, 2016
運用期間 10.4 years
タイプ communications

技術仕様

分類 Payload
質量 6552.00 kg
乾燥質量 2946.00 kg
総質量 6552.00 kg
長さ 7.50 m
直径 3.00 m
スパン 44.00 m
形状 Box + 2 panels
製造者 BOES
バスタイプ BSS-702MP
フェーズステータス In Orbit
所有者/国 INTELU/US

Most Searched